Location: Chacao
(10.4960°N, 66.8535°W)
Time: 22:55:29
(UTC+00:00)

Cosmos 1455 - Pass Details

Date: 18 April 2024
Orbit: 446 x 465 km, 82.5° (Epoch: 24 May)

Event Time Altitude Azimuth Distance (km) Brightness Sun altitude
Rises 23:38:19 0° 205° (SSW) 2,509 5.8 -15.2°
Reaches altitude 10° 23:40:38 10° 218° (SW) 1,635 5.0 -15.7°
Maximum altitude 23:43:38 25° 275° (W) 981 4.5 -16.4°
Drops below altitude 10° 23:46:40 10° 333° (NNW) 1,637 5.3 -17.1°
Sets 23:49:00 0° 346° (NNW) 2,514 6.1 -17.7°
